Location: Celina Elementary School
(33.3262°N, 96.7767°W)
Time: 07:46:55
(UTC+00:00)

Cosmos 2369 Rocket - Pass Details

Date: 26 November 2021
Orbit: 827 x 854 km, 71.0° (Epoch: 19 January)

Event Time Altitude Azimuth Distance (km) Brightness Sun altitude
Rises 11:59:55 0° 183° (S) 3,353 5.5 -14.3°
Reaches altitude 10° 12:02:26 10° 177° (S) 2,422 4.8 -13.8°
Maximum altitude 12:07:41 46° 105° (ESE) 1,106 3.4 -12.7°
Drops below altitude 10° 12:12:58 10° 34° (NE) 2,434 4.8 -11.7°
Sets 12:15:29 0° 28° (NNE) 3,372 5.5 -11.2°
